Wind_Speed
93 96 98 100 102 103 104 105 108 110 108 100 95 91 91 89 85 80 75 71 71 72 72 73 76 81 86 91 93 92 91 88 86 84 83 80 75 71
97 99 101 103 103 103 103 102 102 103 103 95 89 84 85 86 84 80 75 71 69 69 68 66 66 68 72 77 85 91 93 93 90 86 83 81 80 75
99 102 103 104 103 102 100 98 96 96 96 91 86 81 80 83 83 82 79 74 71 69 68 66 64 62 62 64 68 74 81 87 90 90 88 85 81 78
102 103 103 102 100 97 95 92 90 88 88 85 79 74 71 72 76 79 81 80 76 73 71 69 67 64 62 60 60 62 66 72 78 83 87 88 82 79
102 101 99 97 94 92 90 87 83 80 79 78 74 70 66 65 68 71 74 78 79 78 76 74 72 70 67 64 62 61 61 64 68 71 76 80 81 80
99 97 94 91 90 89 85 80 77 74 72 72 71 68 64 61 63 64 66 69 74 78 79 79 78 76 74 71 68 66 64 64 64 64 65 68 73 76
94 90 87 87 87 84 80 76 73 70 68 68 66 64 60 58 57 57 57 57 60 67 75 79 80 79 78 76 74 72 70 68 65 62 60 61 65 69
87 84 84 85 83 78 73 71 69 67 65 64 63 61 58 55 54 51 49 47 46 49 60 66 73 76 76 76 74 72 70 67 64 61 57 56 57 61
83 82 83 82 77 72 68 65 62 60 60 61 60 58 56 53 51 47 43 40 35 33 42 46 54 61 64 65 64 63 62 61 60 58 54 51 51 55
81 83 82 77 71 68 64 60 56 54 54 56 56 55 53 51 48 42 35 27 22 21 25 27 33 40 44 46 48 50 52 53 54 53 50 48 46 49
80 81 77 71 67 64 61 57 53 51 50 51 51 50 49 46 41 33 25 17 11 11 14 15 18 23 27 30 34 38 42 45 47 47 46 45 44 45
79 76 71 66 62 59 57 55 52 49 46 43 42 42 41 36 31 25 18 11 6 5 9 11 12 15 17 22 26 30 34 38 40 40 39 40 42 42
77 70 63 60 57 54 52 51 49 46 42 38 34 31 28 24 21 19 16 12 7 4 8 11 12 14 15 18 22 26 29 32 34 35 34 35 36 37
72 63 58 55 52 49 47 45 43 40 34 29 25 20 18 17 17 16 15 13 11 8 8 10 12 14 16 18 21 24 27 29 30 31 31 31 32 34
64 57 54 51 47 44 41 39 35 30 24 20 17 16 16 16 16 15 15 14 12 9 8 9 12 14 16 18 20 23 25 27 28 29 29 29 30 32
57 52 50 47 42 39 35 32 26 20 17 16 16 16 16 16 15 14 12 11 10 8 5 6 9 13 15 18 20 22 24 25 27 28 29 29 30 32
52 49 46 41 37 32 28 22 18 17 17 18 17 16 15 14 13 12 11 9 7 5 3 3 7 10 13 16 19 21 23 24 26 26 27 28 31 34
47 44 41 36 30 23 18 15 16 18 19 19 17 15 12 11 10 10 9 8 7 5 3 3 5 8 11 14 17 20 22 23 24 26 27 28 31 34
42 39 34 28 20 14 13 15 18 19 19 16 13 12 11 11 11 10 10 10 10 9 8 8 8 9 11 13 15 18 20 22 24 25 27 29 30 32
35 32 25 18 12 12 14 17 18 17 15 13 13 12 11 11 11 11 12 13 12 12 11 11 11 11 12 14 16 18 19 21 24 25 26 28 29 29
27 22 15 11 10 13 16 16 15 14 14 14 13 13 12 11 10 11 11 11 11 11 10 10 10 10 11 12 15 17 18 20 21 23 24 26 27 28
19 13 9 9 11 14 14 13 13 14 14 14 14 13 12 11 10 9 9 8 7 7 6 5 5 5 6 8 10 13 15 17 19 20 22 23 24 25
10 7 7 10 12 12 12 12 13 13 13 13 12 12 11 10 9 8 6 5 4 3 2 2 1 3 4 6 8 11 13 15 17 19 20 22 24 26
Wind_Direction
308 308 307 307 306 305 303 301 300 298 296 294 292 289 287 285 284 282 277 272 268 264 262 259 255 252 250 248 246 244 242 241 242 243 245 245 246 246
309 309 308 307 306 304 302 301 299 298 297 296 293 289 284 282 281 278 275 271 266 262 259 258 256 254 253 251 250 248 247 244 242 240 240 242 243 244
311 310 309 308 306 304 303 302 301 300 299 298 296 292 286 281 277 274 271 268 264 259 256 254 253 253 253 253 252 252 251 249 247 244 240 240 240 241
312 311 309 307 306 305 305 305 303 301 300 299 298 296 292 287 280 274 269 265 261 257 254 252 251 250 251 251 253 254 254 253 251 249 245 241 239 238
313 311 309 308 308 308 308 306 304 302 301 301 300 299 298 294 287 280 272 266 260 256 253 251 250 249 249 250 252 254 255 255 253 251 248 245 240 237
312 310 309 310 311 311 309 307 304 303 302 301 301 302 301 297 292 286 277 269 262 256 253 251 250 250 250 251 252 254 256 256 254 251 248 245 241 239
312 310 311 312 313 312 310 307 305 304 303 303 304 305 305 302 297 292 285 276 265 258 253 251 251 252 252 253 254 255 256 255 252 249 246 244 241 239
312 312 314 315 314 312 309 306 306 306 305 305 306 306 306 304 302 299 294 286 274 262 257 253 252 252 254 255 256 255 253 249 246 243 241 240 239 236
313 315 317 316 314 311 308 307 306 306 306 307 308 307 306 306 305 304 301 295 286 270 258 254 252 253 254 254 253 250 246 241 238 236 236 235 236 234
316 318 319 317 314 311 309 308 308 308 308 308 309 308 308 308 308 309 307 301 291 276 264 255 250 252 252 251 248 243 238 233 232 231 232 231 231 231
319 320 319 317 314 313 312 311 311 310 310 310 309 308 308 310 311 313 314 312 296 272 267 262 252 250 248 246 241 236 230 227 226 227 228 227 227 227
320 320 319 317 316 314 313 312 312 312 312 310 308 306 308 310 313 317 322 326 311 264 265 260 250 246 240 237 233 228 223 221 222 224 226 226 225 226
322 321 319 318 317 315 313 313 313 315 316 314 311 309 309 312 314 317 321 326 325 288 269 257 241 235 229 222 225 222 219 219 221 223 223 222 221 223
323 321 320 319 318 316 315 314 316 318 319 320 319 318 317 315 315 315 317 319 318 301 272 255 239 231 222 216 218 218 217 218 220 222 222 220 218 219
323 322 322 321 320 318 317 318 320 324 327 330 328 325 320 316 313 312 312 314 315 306 279 250 233 224 217 212 214 215 216 216 217 218 218 217 217 217
323 323 324 324 323 322 322 324 328 335 339 338 335 328 323 320 319 320 319 318 317 314 291 247 226 218 213 211 211 211 211 212 213 215 216 215 215 215
324 325 326 327 326 326 327 333 341 345 343 339 337 332 329 328 330 333 334 334 332 326 307 245 216 209 205 205 204 205 207 207 208 210 212 212 213 215
324 326 328 329 330 332 337 343 346 345 343 342 342 344 346 350 356 3 11 18 22 32 62 125 167 182 188 191 193 197 200 203 203 205 206 206 209 214
325 327 329 332 336 344 349 347 345 345 348 355 4 12 19 25 29 35 43 52 59 65 78 96 120 147 164 174 184 190 195 197 199 201 204 207 210 212
325 328 332 337 347 352 350 349 351 358 11 24 32 37 40 44 51 57 62 66 67 72 79 91 106 121 143 158 170 180 187 194 199 204 207 210 211 211
327 331 339 350 355 353 354 360 13 30 39 45 49 52 54 59 64 66 67 68 71 73 75 83 98 113 128 145 157 167 176 184 190 194 196 198 199 200
332 342 358 4 359 359 7 23 40 45 47 49 51 52 53 55 57 60 63 64 63 62 62 73 94 119 139 152 163 170 176 182 186 191 196 199 203 208
345 10 18 8 7 16 33 45 45 44 43 41 40 39 38 39 40 42 43 41 34 19 355 329 271 232 217 212 207 204 204 205 206 207 211 214 217 220
Height
5576 5563 5550 5536 5522 5506 5490 5472 5455 5444 5449 5455 5447 5435 5415 5405 5403 5400 5399 5400 5399 5399 5400 5402 5406 5411 5415 5421 5427 5433 5439 5446 5453 5460 5467 5475 5482 5488
5553 5540 5526 5511 5496 5480 5464 5448 5429 5409 5400 5409 5410 5406 5393 5382 5377 5373 5372 5373 5375 5376 5377 5379 5382 5385 5390 5395 5400 5405 5411 5418 5425 5435 5444 5453 5461 5468
5530 5516 5500 5483 5468 5452 5436 5421 5406 5388 5371 5371 5371 5370 5362 5353 5348 5345 5343 5344 5348 5351 5353 5356 5359 5363 5367 5372 5376 5381 5387 5393 5399 5408 5418 5429 5439 5448
5506 5490 5473 5456 5440 5425 5410 5396 5382 5367 5350 5341 5341 5338 5333 5325 5318 5314 5313 5314 5319 5324 5328 5332 5337 5342 5346 5350 5355 5361 5366 5371 5377 5384 5393 5406 5418 5426
5480 5463 5447 5430 5416 5401 5387 5373 5359 5346 5332 5320 5314 5312 5308 5301 5290 5285 5282 5283 5288 5294 5300 5306 5312 5317 5323 5329 5335 5341 5346 5352 5358 5364 5372 5381 5393 5404
5456 5439 5423 5408 5393 5379 5365 5351 5338 5327 5316 5303 5294 5288 5284 5277 5266 5257 5253 5254 5256 5263 5269 5277 5284 5291 5299 5306 5314 5320 5326 5331 5338 5344 5352 5361 5371 5383
5435 5419 5403 5388 5373 5357 5343 5330 5318 5308 5297 5287 5277 5269 5262 5254 5245 5236 5229 5228 5230 5234 5238 5248 5257 5266 5273 5281 5288 5296 5303 5310 5318 5326 5334 5343 5354 5365
5414 5400 5385 5369 5354 5340 5326 5313 5301 5289 5279 5269 5261 5251 5244 5235 5227 5220 5213 5208 5210 5215 5213 5223 5231 5239 5247 5254 5262 5270 5277 5287 5297 5308 5318 5328 5338 5349
5393 5379 5365 5350 5334 5322 5311 5300 5289 5277 5265 5254 5244 5236 5228 5221 5213 5207 5201 5196 5194 5196 5196 5204 5210 5216 5223 5230 5238 5245 5255 5266 5279 5292 5303 5313 5324 5334
5374 5359 5344 5331 5316 5304 5294 5285 5275 5265 5254 5243 5232 5222 5214 5208 5201 5196 5191 5188 5187 5186 5187 5191 5196 5200 5206 5212 5219 5227 5238 5251 5264 5278 5290 5300 5311 5321
5359 5343 5326 5313 5300 5287 5276 5268 5261 5253 5244 5233 5222 5212 5204 5198 5192 5188 5185 5183 5183 5182 5183 5184 5188 5192 5197 5202 5208 5216 5227 5240 5253 5266 5278 5288 5299 5309
5345 5329 5312 5298 5285 5273 5262 5253 5246 5240 5233 5225 5215 5205 5198 5192 5187 5183 5181 5180 5180 5180 5181 5182 5185 5188 5193 5197 5203 5210 5221 5233 5245 5257 5268 5278 5288 5298
5328 5314 5300 5286 5273 5262 5251 5242 5234 5227 5221 5213 5206 5199 5193 5189 5185 5182 5180 5178 5178 5179 5180 5181 5183 5186 5190 5195 5200 5207 5217 5228 5239 5250 5259 5269 5279 5288
5310 5298 5286 5274 5263 5252 5242 5234 5226 5219 5212 5205 5199 5195 5191 5187 5184 5182 5180 5178 5177 5178 5178 5179 5181 5183 5187 5192 5197 5205 5214 5224 5234 5243 5252 5261 5271 5280
5297 5285 5274 5263 5252 5243 5235 5226 5219 5213 5206 5201 5197 5193 5189 5186 5183 5181 5179 5177 5176 5176 5176 5176 5178 5181 5185 5189 5195 5203 5211 5220 5228 5237 5247 5256 5265 5274
5286 5275 5265 5254 5244 5235 5228 5221 5214 5209 5204 5200 5196 5192 5188 5185 5182 5180 5178 5176 5175 5175 5175 5175 5176 5179 5183 5187 5194 5200 5208 5216 5224 5232 5241 5250 5258 5267
5274 5266 5256 5247 5238 5230 5223 5217 5212 5207 5203 5198 5194 5190 5187 5184 5181 5179 5177 5175 5174 5174 5174 5175 5176 5178 5182 5187 5192 5199 5205 5213 5221 5229 5237 5245 5253 5260
5265 5257 5249 5240 5232 5226 5221 5216 5211 5207 5202 5197 5193 5189 5186 5184 5181 5179 5178 5177 5175 5175 5175 5175 5177 5179 5183 5187 5192 5198 5204 5211 5218 5226 5233 5240 5248 5255
5258 5250 5243 5235 5229 5224 5220 5216 5212 5207 5202 5197 5193 5190 5188 5185 5184 5182 5181 5180 5179 5178 5178 5179 5180 5182 5185 5189 5193 5199 5204 5210 5217 5224 5230 5237 5244 5250
5251 5245 5239 5233 5229 5225 5221 5217 5212 5207 5202 5198 5195 5193 5190 5189 5187 5186 5185 5184 5183 5183 5184 5184 5185 5186 5189 5192 5196 5200 5205 5211 5217 5222 5228 5234 5240 5246
5247 5241 5236 5232 5229 5225 5221 5217 5212 5208 5205 5201 5199 5196 5194 5192 5191 5189 5189 5188 5188 5188 5189 5189 5190 5192 5194 5196 5200 5203 5207 5212 5216 5221 5226 5232 5237 5243
5243 5239 5236 5233 5230 5226 5222 5218 5215 5211 5208 5205 5203 5200 5198 5197 5195 5193 5192 5192 5192 5192 5192 5193 5194 5195 5197 5200 5202 5205 5208 5212 5216 5220 5225 5230 5235 5240
5241 5239 5237 5234 5231 5228 5224 5221 5218 5215 5212 5209 5206 5204 5202 5200 5198 5196 5195 5194 5194 5194 5194 5194 5195 5196 5197 5200 5202 5205 5208 5211 5214 5218 5222 5226 5231 5236